Location: Waco, TX
(31.5480°N, 97.1670°W)
Time: 15:28:46
(UTC-05:00)

ISS - Pass Details

Date: 18 August 2019
Orbit: 410 x 421 km, 51.6° (Epoch: 22 August)

Event Time Altitude Azimuth Distance (km) Brightness Sun altitude
Rises 16:07:02 0° 327° (NNW) 2,368 0.2 50.0°
Reaches altitude 10° 16:09:26 10° 343° (NNW) 1,502 -0.8 49.5°
Maximum altitude 16:12:11 23° 38° (NE) 945 -2.1 49.0°
Drops below altitude 10° 16:14:56 10° 93° (E) 1,496 -1.2 48.4°
Sets 16:17:18 0° 108° (ESE) 2,356 -0.3 47.9°
